• Em Portugal
  • Lista de países
  • Para 7 dias
  • Temperatura da água
  • Mapas de satélite
  • Mapa do tempo
  • Widgets de tempo
  • user-avatar
    Iniciar Sessão

    Previsão horária em Erdenetsagaan

    Hoje, 20 Outubro, Sexta-feira

    Tempo Temperatura Precipitação Vento Pressão Humidade
    00:00 +5°C° 0 mm 3 m/s 667 mmHg 61%
    01:00 +4°C° 0 mm 3 m/s 667 mmHg 62%
    02:00 +4°C° 0 mm 3 m/s 667 mmHg 63%
    03:00 +4°C° 0 mm 3 m/s 667 mmHg 63%
    04:00 +3°C° 0 mm 3 m/s 667 mmHg 63%
    05:00 +3°C° 0 mm 3 m/s 667 mmHg 63%
    06:00 +3°C° 0 mm 3 m/s 667 mmHg 65%
    07:00 +3°C° 0 mm 3 m/s 668 mmHg 66%
    08:00 +2°C° 0 mm 3 m/s 668 mmHg 67%
    09:00 +3°C° 0 mm 4 m/s 669 mmHg 63%
    10:00 +4°C° 0 mm 4 m/s 669 mmHg 58%
    11:00 +6°C° 0 mm 5 m/s 670 mmHg 53%
    12:00 +6°C° 0 mm 5 m/s 670 mmHg 51%
    13:00 +6°C° 0 mm 5 m/s 670 mmHg 50%
    14:00 +6°C° 0 mm 5 m/s 670 mmHg 48%
    15:00 +5°C° 0 mm 5 m/s 670 mmHg 49%
    16:00 +5°C° 0 mm 4 m/s 670 mmHg 50%
    17:00 +4°C° 0 mm 4 m/s 671 mmHg 51%
    18:00 +3°C° 0 mm 4 m/s 671 mmHg 54%
    19:00 0°C° 0 mm 4 m/s 671 mmHg 57%
    20:00 0°C° 0 mm 3 m/s 672 mmHg 60%
    21:00 -1°C° 0 mm 3 m/s 672 mmHg 63%
    22:00 -1°C° 0 mm 2 m/s 673 mmHg 66%
    23:00 -2°C° 0 mm 2 m/s 673 mmHg 70%

    Amanhã, 21 Outubro, Sábado

    Tempo Temperatura Precipitação Vento Pressão Humidade
    00:00 -2°C° 0 mm 2 m/s 673 mmHg 70%
    01:00 0°C° 0 mm 1 m/s 673 mmHg 70%
    02:00 -1°C° 0 mm 1 m/s 674 mmHg 70%
    03:00 -1°C° 0 mm 1 m/s 674 mmHg 70%
    04:00 -3°C° 0 mm 2 m/s 674 mmHg 69%
    05:00 -3°C° 0 mm 2 m/s 674 mmHg 68%
    06:00 -3°C° 0 mm 2 m/s 674 mmHg 66%
    07:00 -2°C° 0 mm 3 m/s 674 mmHg 64%
    08:00 -2°C° 0 mm 3 m/s 674 mmHg 61%
    09:00 -1°C° 0 mm 3 m/s 675 mmHg 55%
    10:00 -1°C° 0 mm 4 m/s 675 mmHg 49%
    11:00 +1°C° 0 mm 4 m/s 675 mmHg 42%
    12:00 +1°C° 0 mm 4 m/s 674 mmHg 41%
    13:00 +3°C° 0 mm 4 m/s 674 mmHg 40%
    14:00 +4°C° 0 mm 4 m/s 673 mmHg 39%
    15:00 +3°C° 0 mm 4 m/s 673 mmHg 42%
    16:00 +1°C° 0 mm 4 m/s 673 mmHg 45%
    17:00 +2°C° 0 mm 3 m/s 672 mmHg 49%
    18:00 +1°C° 0 mm 3 m/s 672 mmHg 50%
    19:00 0°C° 0 mm 3 m/s 672 mmHg 51%
    20:00 -1°C° 0 mm 3 m/s 672 mmHg 53%
    21:00 -1°C° 0 mm 3 m/s 673 mmHg 52%
    22:00 -1°C° 0 mm 3 m/s 673 mmHg 52%
    23:00 -1°C° 0 mm 3 m/s 673 mmHg 52%

    Depois de amanhã, 22 Outubro, Domingo

    Tempo Temperatura Precipitação Vento Pressão Humidade
    00:00 -2°C° 0 mm 2 m/s 673 mmHg 51%
    01:00 -2°C° 0 mm 2 m/s 673 mmHg 49%
    02:00 -2°C° 0 mm 2 m/s 673 mmHg 48%
    03:00 -2°C° 0 mm 2 m/s 673 mmHg 46%
    04:00 -2°C° 0 mm 2 m/s 673 mmHg 44%
    05:00 -2°C° 0 mm 2 m/s 673 mmHg 42%
    06:00 -2°C° 0 mm 2 m/s 674 mmHg 40%
    07:00 -1°C° 0 mm 2 m/s 674 mmHg 38%
    08:00 -1°C° 0 mm 2 m/s 674 mmHg 35%
    09:00 +1°C° 0 mm 2 m/s 675 mmHg 33%
    10:00 +2°C° 0 mm 2 m/s 675 mmHg 30%
    11:00 +3°C° 0 mm 2 m/s 675 mmHg 28%
    12:00 +2°C° 0 mm 3 m/s 675 mmHg 27%
    13:00 +3°C° 0 mm 3 m/s 675 mmHg 27%
    14:00 +3°C° 0 mm 3 m/s 674 mmHg 26%
    15:00 +3°C° 0 mm 3 m/s 674 mmHg 29%
    16:00 +2°C° 0 mm 3 m/s 674 mmHg 32%
    17:00 +3°C° 0 mm 2 m/s 674 mmHg 34%
    18:00 +1°C° 0 mm 2 m/s 674 mmHg 37%
    19:00 -1°C° 0 mm 2 m/s 675 mmHg 39%
    20:00 -2°C° 0 mm 2 m/s 675 mmHg 41%
    21:00 0°C° 0 mm 1 m/s 675 mmHg 41%
    22:00 0°C° 0 mm 1 m/s 675 mmHg 41%
    23:00 0°C° 0 mm 1 m/s 675 mmHg 41%

    23 Outubro, Segunda-feira

    Tempo Temperatura Precipitação Vento Pressão Humidade
    00:00 -1°C° 0 mm 1 m/s 675 mmHg 41%
    01:00 -2°C° 0 mm 0 m/s 675 mmHg 40%
    02:00 -2°C° 0 mm 0 m/s 675 mmHg 39%
    03:00 -1°C° 0 mm 1 m/s 674 mmHg 38%
    04:00 -1°C° 0 mm 1 m/s 674 mmHg 37%
    05:00 -1°C° 0 mm 1 m/s 674 mmHg 37%
    06:00 0°C° 0 mm 1 m/s 674 mmHg 36%
    07:00 +1°C° 0 mm 1 m/s 675 mmHg 35%
    08:00 +1°C° 0 mm 1 m/s 675 mmHg 33%
    09:00 +3°C° 0 mm 1 m/s 675 mmHg 30%
    10:00 +5°C° 0 mm 1 m/s 675 mmHg 27%
    11:00 +6°C° 0 mm 2 m/s 675 mmHg 24%
    12:00 +6°C° 0 mm 2 m/s 675 mmHg 24%
    13:00 +7°C° 0 mm 2 m/s 675 mmHg 24%
    14:00 +8°C° 0 mm 2 m/s 674 mmHg 24%
    15:00 +7°C° 0 mm 2 m/s 674 mmHg 29%
    16:00 +6°C° 0 mm 2 m/s 674 mmHg 34%
    17:00 +4°C° 0 mm 2 m/s 673 mmHg 38%
    18:00 +4°C° 0 mm 2 m/s 673 mmHg 41%
    19:00 +2°C° 0 mm 3 m/s 673 mmHg 44%
    20:00 +1°C° 0 mm 3 m/s 673 mmHg 47%
    21:00 +1°C° 0 mm 3 m/s 673 mmHg 48%
    22:00 0°C° 0 mm 4 m/s 673 mmHg 49%
    23:00 0°C° 0 mm 4 m/s 673 mmHg 50%

    24 Outubro, Terça-feira

    Tempo Temperatura Precipitação Vento Pressão Humidade
    00:00 0°C° 0 mm 4 m/s 673 mmHg 49%
    01:00 0°C° 0 mm 4 m/s 673 mmHg 49%
    02:00 0°C° 0 mm 4 m/s 673 mmHg 48%
    03:00 0°C° 0 mm 4 m/s 673 mmHg 50%
    04:00 -1°C° 0 mm 5 m/s 673 mmHg 51%
    05:00 -1°C° 0 mm 5 m/s 673 mmHg 52%
    06:00 0°C° 0 mm 5 m/s 673 mmHg 54%
    07:00 0°C° 0 mm 5 m/s 673 mmHg 56%
    08:00 +1°C° 0 mm 5 m/s 674 mmHg 57%
    09:00 +3°C° 0 mm 6 m/s 674 mmHg 52%
    10:00 +5°C° 0 mm 6 m/s 674 mmHg 47%
    11:00 +8°C° 0 mm 6 m/s 674 mmHg 42%
    12:00 +8°C° 0 mm 6 m/s 674 mmHg 41%
    13:00 +9°C° 0 mm 6 m/s 674 mmHg 39%
    14:00 +10°C° 0 mm 5 m/s 673 mmHg 37%
    15:00 +8°C° 0 mm 4 m/s 673 mmHg 42%
    16:00 +8°C° 0 mm 3 m/s 673 mmHg 47%
    17:00 +7°C° 0 mm 2 m/s 673 mmHg 51%
    18:00 +6°C° 0 mm 2 m/s 673 mmHg 55%
    19:00 +5°C° 0 mm 2 m/s 673 mmHg 58%
    20:00 +4°C° 0 mm 2 m/s 673 mmHg 62%
    21:00 +4°C° 0 mm 1 m/s 673 mmHg 64%
    22:00 +4°C° 0 mm 1 m/s 673 mmHg 66%
    23:00 +3°C° 0 mm 1 m/s 673 mmHg 68%

    25 Outubro, Quarta-feira

    Tempo Temperatura Precipitação Vento Pressão Humidade
    00:00 +3°C° 0 mm 1 m/s 673 mmHg 71%
    01:00 +2°C° 0 mm 1 m/s 673 mmHg 74%
    02:00 +1°C° 0 mm 0 m/s 673 mmHg 77%
    03:00 +2°C° 0 mm 1 m/s 673 mmHg 76%
    04:00 +2°C° 0 mm 1 m/s 673 mmHg 74%
    05:00 +2°C° 0 mm 1 m/s 673 mmHg 73%
    06:00 +3°C° 0 mm 1 m/s 673 mmHg 68%
    07:00 +3°C° 0 mm 2 m/s 673 mmHg 63%
    08:00 +3°C° 0 mm 2 m/s 674 mmHg 58%
    09:00 +5°C° 0 mm 2 m/s 674 mmHg 51%
    10:00 +7°C° 0 mm 2 m/s 674 mmHg 45%
    11:00 +9°C° 0 mm 3 m/s 673 mmHg 39%
    12:00 +10°C° 0 mm 3 m/s 673 mmHg 36%
    13:00 +11°C° 0 mm 3 m/s 672 mmHg 34%
    14:00 +11°C° 0 mm 3 m/s 672 mmHg 32%
    15:00 +10°C° 0 mm 3 m/s 671 mmHg 36%
    16:00 +9°C° 0 mm 2 m/s 671 mmHg 41%
    17:00 +8°C° 0 mm 2 m/s 670 mmHg 46%
    18:00 +7°C° 0 mm 2 m/s 670 mmHg 47%
    19:00 +7°C° 0 mm 2 m/s 670 mmHg 49%
    20:00 +5°C° 0 mm 3 m/s 670 mmHg 51%
    21:00 +5°C° 0 mm 3 m/s 669 mmHg 52%
    22:00 +5°C° 0 mm 3 m/s 669 mmHg 53%
    23:00 +5°C° 0 mm 3 m/s 669 mmHg 54%
    Mostrar mais